This is the latest recevied weather packets stored in our database for station/object IN3XSV-13. If no packets are shown the sender has not sent any weather packets the latest 10 day(s).
| Time | Temp. | Humidity | Pressure | Rain* | Wind** | Luminosity | Snow |
|---|---|---|---|---|---|---|---|
| 1777631939 | 21.67° C | 38% | 9965 hPa | 0 mm | - | - | - |
| 1777631639 | 20° C | 40% | 9965.1 hPa | 0 mm | - | - | - |
| 1777631339 | 20° C | 39% | 9965.2 hPa | 0 mm | - | - | - |
| 1777631039 | 20.56° C | 39% | 9965.4 hPa | 0 mm | - | - | - |
| 1777630739 | 19.44° C | 39% | 9965.2 hPa | 0 mm | - | - | - |
| 1777630439 | 19.44° C | 39% | 9965.3 hPa | 0 mm | - | - | - |
| 1777630139 | 20° C | 39% | 9965.3 hPa | 0 mm | - | - | - |
| 1777629839 | 21.11° C | 37% | 9965.5 hPa | 0 mm | - | - | - |
| 1777629539 | 22.22° C | 36% | 9965.6 hPa | 0 mm | - | - | - |
| 1777629239 | 21.11° C | 38% | 9965.6 hPa | 0 mm | - | - | - |
| 1777628939 | 20° C | 39% | 9965.6 hPa | 0 mm | - | - | - |
| 1777628639 | 20° C | 37% | 9965.6 hPa | 0 mm | - | - | - |
| 1777628339 | 21.11° C | 38% | 9965.6 hPa | 0 mm | - | - | - |
| 1777628039 | 21.11° C | 39% | 9965.9 hPa | 0 mm | - | - | - |
| 1777627739 | 19.44° C | 39% | 9965.9 hPa | 0 mm | - | - | - |
| 1777627439 | 18.89° C | 38% | 9965.9 hPa | 0 mm | - | - | - |
| 1777627139 | 18.89° C | 39% | 9966.1 hPa | 0 mm | - | - | - |
| 1777626839 | 18.89° C | 39% | 9966 hPa | 0 mm | - | - | - |
| 1777626539 | 18.89° C | 39% | 9966.1 hPa | 0 mm | - | - | - |
| 1777626239 | 19.44° C | 38% | 9966 hPa | 0 mm | - | - | - |
| 1777625939 | 18.33° C | 40% | 9965.9 hPa | 0 mm | - | - | - |
| 1777625639 | 17.22° C | 40% | 9966 hPa | 0 mm | - | - | - |
| 1777625339 | 17.78° C | 41% | 9966 hPa | 0 mm | - | - | - |
| 1777625039 | 17.22° C | 42% | 9966 hPa | 0 mm | - | - | - |
| 1777624739 | 16.67° C | 42% | 9966.1 hPa | 0 mm | - | - | - |
* Rain latest hour (hover to see other rain measurements)
** Current wind speed in m/s (hover to see current wind gust speed)